Regional Weather Roundup
Issued by NWS

Home | Current Version | Previous Version | Text Only | Print | Product List | Glossary Off
Versions: 1 2 3 4 5 6 7 8 9 10 11 12 13 14 15 16 17 18 19 20 21 22 23 24 25 26 27 28 29 30 31 32 33 34 35 36 37 38 39 40 41 42 43 44 45 46 47 48 49 50

000
ASUS43 KLMK 270402
RWRKY
KENTUCKY REGIONAL WEATHER ROUNDUP
NATIONAL WEATHER SERVICE LOUISVILLE KY
1200 AM EDT WED AUG 27 2014

NOTE "FAIR" INDICATES FEW OR NO CLOUDS BELOW 12,000 FEET
WITH NO SIGNIFICANT WEATHER AND/OR OBSTRUCTIONS TO VISIBILITY.

KYZ001>023-026-027-061>063-070>075-270500-
WESTERN AND SOUTH CENTRAL KENTUCKY

CITY           SKY/WX    TMP DP  RH WIND       PRES   REMARKS
PADUCAH        CLEAR     76  72  87 CALM      30.07S
HENDERSON      CLEAR    N/A N/A N/A MISG        N/A
OWENSBORO      CLEAR     77  74  90 CALM      30.07F
HOPKINSVILLE   CLEAR     75  75 100 CALM      30.09S
BOWLING GREEN  CLEAR     76  72  87 CALM      30.08S
GLASGOW        PTCLDY    73  72  97 CALM      30.09F
$$

KYZ024-025-028>034-038-045-046-053-270500-
NORTH CENTRAL KENTUCKY

CITY           SKY/WX    TMP DP  RH WIND       PRES   REMARKS
LOUISVILLE/SDF PTCLDY    82  68  62 CALM      30.07S
LOUISVILLE/LOU PTCLDY    77  69  76 CALM      30.08R
FORT KNOX      CLEAR     75  75 100 CALM      30.08S
$$

KYZ035>037-039>044-047>052-055>060-089>105-270500-
NORTHEAST KENTUCKY

CITY           SKY/WX    TMP DP  RH WIND       PRES   REMARKS
LEXINGTON      CLEAR     75  66  73 SE6       30.11S
COVINGTON      CLEAR     76  68  76 CALM      30.10S
FRANKFORT      CLEAR     75  68  78 S5        30.09S
$$

KYZ054-064>069-076>088-106>120-270500-
SOUTHEAST KENTUCKY

CITY           SKY/WX    TMP DP  RH WIND       PRES   REMARKS
JACKSON        CLEAR     71  62  73 SE3       30.14S
LONDON         CLEAR     68  62  81 CALM      30.13S
SOMERSET       CLEAR     68  66  94 CALM      30.13S
MIDDLESBORO    CLEAR     66  64  94 CALM      30.14R
MONTICELLO     PTCLDY    66  65  97 CALM      30.13S
$$




USA.gov is the U.S. government's official web portal to all federal, state and local government web resources and services.